THORAD DELTA 1 DEB, 8308

Orbit data source: Space-Track

THORAD DELTA 1 DEB, 8308 is space debris in SSO originally from a launch on Fri, 15 Nov 1974 UTC launched from the Air Force Western Test Range (AFWTR). Debris objects in space refer to the collection of defunct objects orbiting the Earth. Examples of debris include non-operational satellites, rocket bodies, and fragments generated from explosions, collisions, or faulty payload assembly.

Loading next visibility...
Identifier
8308, 1974-089BR
Orbit
SSO
Country
Flag of USUS
Related business
Manufacturer
Unknown
Mission
Spacecraft
Bus & Motor
Unknown
Mass
Unknown
Launch date (UTC)
1974-11-15 (51 years ago)
Launch vehicle
Unknown
Launch site
Air Force Western Test Range (AFWTR)
Object type
Payload
Rocket body
Debris
Shape & HBR
Unknown shape, 0.3 m
Radar Cross Section
Medium (>0.1 m² and <1 m²)

Expand to show TLE details & history
Last TLE update: 1 day ago

TLE from 1 day ago
0 THORAD DELTA 1 DEB
1 08308U 74089BR  25353.06186645  .00000000  00000-0  29052-3 0  9992
2 08308 101.5220  34.2497 0061416  37.2955  19.0076 12.45578217322620
Epoch: 2025-12-19T01:29Z
TLE epoch observation values (Epoch: 2025-12-19T01:29:05.261Z)
Latitude
54.92017°
Longitude
-92.71912°
Altitude
1,446.308 km
Speed
7.165 km/s
True Right ascension
01h 09m 50s
True Declination
54° 46' 21"
Sunlit
Object was in daylight at epoch
Visualization orbit readout
Latitude
Unknown
Longitude
Unknown
Altitude
Unknown
Speed
Unknown
Apparent Right ascension
Unknown
Apparent Declination
Unknown
Sunlit
N/A
Visualization observer readout
Local Sidereal Time
01:25:03
Azimuth
Unknown
Elevation
Unknown
Doppler factor
Unknown
Orbital elements
Apogee altitude
1,528.849 km
Perigee altitude
1,432.319 km
Semi-major axis
7,858.721 km
Eccentricity
0.00614
Inclination
101.522°
RAAN
34.2497°
Arg. of periapsis
37.2955°
True anomaly
19.23849°
Mean anomaly
19.0076°
Eccentric anomaly
19.12288°
Mean motion
3.11541 °/min
Orbital period
115.55 mins
BSTAR
0.00029052
Loading maneuver chart data...
Computing Atmospheric mass density...

Documentation

Showing up to 5 results
|